Regional Weather Roundup
Issued by NWS Jackson, KY

Home | Current Version | Previous Version | Text Only | Print | Product List | Glossary Off
Versions: 1 2 3 4 5 6 7 8 9 10 11 12 13 14 15 16 17 18 19 20 21 22 23 24 25 26 27 28 29 30 31 32 33 34 35 36 37 38 39 40 41 42 43 44 45 46 47 48 49 50

000
ASUS43 KJKL 020010
RWRJKL

EAST KENTUCKY HOURLY WEATHER ROUNDUP
NATIONAL WEATHER SERVICE JACKSON KY
800 PM EDT TUE SEP 01 2015

NOTE: "FAIR" INDICATES FEW OR NO CLOUDS BELOW 12,000 FEET WITH
NO SIGNIFICANT WEATHER AND/OR OBSTRUCTIONS TO VISIBILITY.

* THESE REPORTS ARE NOT UNDER NWS QUALITY CONTROL AND MAY NOT
  REPORT WEATHER SUCH AS PRECIPITATION AND FOG.

KYZ079-080-083-085-087-088-110-112-115-119-120-020100
...EASTERN KENTUCKY...

CITY           SKY/WX    TMP DP  RH WIND       PRES   REMARKS
JACKSON        PTCLDY    82  63  52 CALM      30.13S
6HR MIN TEMP:  81; 6HR MAX TEMP:  88;

LONDON         MOCLDY    81  65  58 CALM      30.12S
6HR MIN TEMP:  81; 6HR MAX TEMP:  90;

SOMERSET*      MOCLDY    79  68  69 CALM      30.11F
MONTICELLO*    MOCLDY    79  73  81 CALM      30.13S
6HR MIN TEMP:  79; 6HR MAX TEMP:  89;

MIDDLESBORO*   PTCLDY    78  71  79 CALM      30.12S
6HR MIN TEMP:  78; 6HR MAX TEMP:  89;

HAZARD APT*    PTCLDY    79  68  69 CALM      30.13S
BLACK MTN*       N/A     66  63  88 NW2         N/A
PIKEVILLE APT* CLEAR     79  66  65 CALM      30.13S
BIG SANDY*     PTCLDY    80  67  65 CALM      30.12S
6HR MIN TEMP:  80; 6HR MAX TEMP:  87;

MOREHEAD APT*  PTCLDY    79  70  73 CALM      30.13S
$$

KYZ035-036-041-042-044-050-067-078-099-020100
...CENTRAL KENTUCKY...

CITY           SKY/WX    TMP DP  RH WIND       PRES   REMARKS
MT STERLING*   MOCLDY    77  70  78 CALM      30.12S
FLEMING/MASON* CLEAR     81  68  65 CALM      30.11S
DANVILLE*      MOCLDY    81  66  61 CALM      30.12S
RICHMOND*      MOCLDY    81  63  54 CALM      30.10F
LEXINGTON      MOCLDY    83  66  56 CALM      30.11S
6HR MIN TEMP:  83; 6HR MAX TEMP:  90;

FRANKFORT      PTCLDY    81  67  62 CALM      30.09S
6HR MIN TEMP:  81; 6HR MAX TEMP:  90;

$$

KYZ091>093-OHZ055-061-077-WVZ005-015-034-035-042-020100
...SOUTHERN OHIO/WEST VIRGINIA...

CITY           SKY/WX    TMP DP  RH WIND       PRES   REMARKS
COVINGTON      PTCLDY    81  67  62 W3        30.10R
COLUMBUS       MOCLDY    82  66  58 SW6       30.07S
DAYTON         MOCLDY    78  67  68 CALM      30.11S
WILMINGTON     PTCLDY    78  67  68 SW3       30.10R
HUNTINGTON     MOCLDY    83  64  52 CALM      30.09S
CHARLESTON     PTCLDY    78  68  71 CALM      30.09S
PINEVILLE*     MOCLDY    73  70  93 MISG      30.20R
BECKLEY        PTCLDY    73  65  75 CALM      30.19S
BLUEFIELD      MOCLDY    76  62  62 CALM      30.21S
$$

VAZ002-007-008-TNZ017-027-036-066-071-020100
...SOUTHWEST VIRGINIA/EAST TENNESSEE...

CITY           SKY/WX    TMP DP  RH WIND       PRES   REMARKS
WISE*          CLOUDY    75  61  60 CALM      30.22R
JONESVILLE*    PTCLDY    77  68  73 CALM      30.15S
ABINGDON*      PTCLDY    77  67  72 CALM      30.16S
BRISTOL        MOCLDY    78  67  68 N3        30.12S
KNOXVILLE      MOCLDY    83  65  54 CALM      30.08F
OAK RIDGE      PTCLDY    82  68  62 CALM      30.10S
CROSSVILLE     MOCLDY    75  69  81 CALM      30.15S
NASHVILLE      MOCLDY    85  64  49 NE6       30.09R
$$

...KEY TO REMARKS...
VSB - VISIBILITY IN MILES
WCI - WIND CHILL INDEX
HX  - HEAT INDEX

$$



USA.gov is the U.S. government's official web portal to all federal, state and local government web resources and services.